This is the latest recevied weather packets stored in our database for station/object K4SPB-4. If no packets are shown the sender has not sent any weather packets the latest 10 day(s).
| Time | Temp. | Humidity | Pressure | Rain* | Wind** | Luminosity | Snow |
|---|---|---|---|---|---|---|---|
| 1778328618 | 15.56° C | 88% | 1009.7 hPa | 0 mm | - | - | - |
| 1778326227 | 14.44° C | 89% | 1009.3 hPa | 0 mm | - | - | - |
| 1778323822 | 14.44° C | 89% | 1008.9 hPa | 0 mm | - | - | - |
| 1778322032 | 14.44° C | 88% | 1009.1 hPa | 0 mm | - | - | - |
| 1778312416 | 16.11° C | 82% | 1008.8 hPa | 0 mm | - | - | - |
| 1778306436 | 16.11° C | 79% | 1009.5 hPa | 0 mm | - | - | - |
| 1778302219 | 16.67° C | 76% | 1010.6 hPa | 0 mm | - | - | - |
| 1778299849 | 17.22° C | 74% | 1010.4 hPa | 0 mm | - | - | - |
| 1778298023 | 17.78° C | 72% | 1010.1 hPa | 0 mm | - | - | - |
| 1778295635 | 18.33° C | 68% | 1010.2 hPa | 0 mm | - | - | - |
| 1778294451 | 18.89° C | 66% | 1010.4 hPa | 0 mm | - | - | - |
| 1778293227 | 19.44° C | 65% | 1010.2 hPa | 0 mm | - | - | - |
| 1778289632 | 20.56° C | 55% | 1009.8 hPa | 0 mm | - | - | - |
| 1778286641 | 21.67° C | 52% | 1009.6 hPa | 0 mm | - | - | - |
| 1778283631 | 22.78° C | 47% | 1009.5 hPa | 0 mm | - | - | - |
| 1778283028 | 22.78° C | 45% | 1009.6 hPa | 0 mm | - | - | - |
| 1778278851 | 23.33° C | 42% | 1010 hPa | 0 mm | - | - | - |
| 1778272228 | 23.33° C | 39% | 1010.7 hPa | 0 mm | - | - | - |
| 1778269217 | 22.78° C | 41% | 1011.2 hPa | 0 mm | - | - | - |
| 1778263823 | 22.22° C | 43% | 1013.2 hPa | 0 mm | - | - | - |
| 1778261434 | 21.67° C | 40% | 1013.6 hPa | 0 mm | - | - | - |
| 1778258428 | 21.11° C | 43% | 1014.6 hPa | 0 mm | - | - | - |
| 1778256632 | 20° C | 46% | 1015.1 hPa | 0 mm | - | - | - |
| 1778251833 | 17.78° C | 60% | 1015.8 hPa | 0 mm | - | - | - |
| 1778251232 | 17.78° C | 66% | 1016 hPa | 0 mm | - | - | - |
* Rain latest hour (hover to see other rain measurements)
** Current wind speed in m/s (hover to see current wind gust speed)